Find Starlink 3789

NORAD ID: 52283 Int'l Des: 2022-041 Owner: SPXS Country: US Constellation: starlink operational
LEOCIRCULAR

現在のビュー

3D地球を読み込み中...

About Starlink 3789

Starlink 3789 (NORAD 52283) is a starlink constellation satellite (v1.5) launched Apr 21, 2022 by SPXS of US. It operates in LEO, CIRCULAR orbit with a mass of 297.00 kg.

Starlink 3789について

説明を読み込み中...

次回通過

Passes for default location (London). Set your location on the main map for personalized predictions.

高度履歴

Loading altitude history...

軌道要素

1 52283U 22041Y 26193.59286455 -.00002342 00000-0 -12911-3 0 9994
2 52283 53.1596 268.1595 0001316 103.3154 256.7985 15.08828924233226
Epoch: Jul 12, 2026 • Age: 7 hours

現在のステータス

高度 540.4 km
遠地点 / 近地点 N/A
速度 7.60 km/s
衛星直下点 27.43°N, 174.91°E
打ち上げ日 Apr 21, 2022
運用期間 4.2 years
タイプ internet

技術仕様

分類 Payload
質量 297.00 kg
乾燥質量 275.00 kg
総質量 297.00 kg
長さ 0.20 m
直径 2.80 m
スパン 9.00 m
形状 Box + pan
製造者 SPXS
バスタイプ Starlink
フェーズステータス In Orbit
所有者/国 SPXS/US

Most Searched